Skip Page Navigation
NASA JPL Caltech
NASA Logo - Jet Propulsion Laboratory + View the NASA Portal
+ Near-Earth Object (NEO) Project
Search JPL
JPL Home Earth Solar System Stars & Galaxies Technology
JPL Solar System Dynamics
BODIES ORBITS EPHEMERIDES TOOLS PHYSICAL DATA DISCOVERY FAQ SITE MAP
JPL Small-Body Database Browser
Search: [ help ]  
172525 Adamblock (2003 TY1)
Classification: Main-belt Asteroid          SPK-ID: 2172525
Ephemeris | Orbit Diagram | Orbital Elements | Physical Parameters | Discovery Circumstances ]

[ hide orbit diagram ]
Orbit Diagram
Note: Make sure you have Java enabled on your browser to see the applet. This applet is provided as a 3D orbit visualization tool. The applet was implemented using 2-body methods, and hence should not be used for determining accurate long-term trajectories (over several years or decades) or planetary encounter circumstances. For accurate long-term ephemerides, please instead use our Horizons system.
Orbit Viewer

Additional Notes: the orbits shown in the applet are color coded. The planets are white lines, and the asteroid/comet is a blue line. The bright white line indicates the portion of the orbit that is above the ecliptic plane, and the darker portion is below the ecliptic plane. Likewise for the asteroid/comet orbit, the light blue indicates the portion above the ecliptic plane, and the dark blue the portion below the ecliptic plane.

Orbit Viewer applet originally written and kindly provided by Osamu Ajiki (AstroArts), and further modified by Ron Baalke (JPL).


Orbital Elements at Epoch 2455200.5 (2010-Jan-04.0) TDB
Reference: MPO129399 (heliocentric ecliptic J2000)
 Element Value Uncertainty (1-sigma)   Units 
e 0.0199100 n/a  
a 2.3472875 n/a AU
q 2.3005530 n/a AU
i 3.79444 n/a deg
node 25.99548 n/a deg
peri 10.54613 n/a deg
M 257.64950 n/a deg
tp 2455573.9524649
(2011-Jan-12.45246490)
n/a JED
period 1313.5537917
3.60
n/a
n/a
d
yr
n 0.27406567 n/a deg/d
Q 2.3940220 n/a AU
  Orbit Determination Parameters
   # obs. used (total)      148  
   first obs. used      1998-??-??  
   last obs. used      2007-12-15  
   # oppositions      7  
   planetary ephem.      DE403  
   quality code      1  
   fit RMS      0.58  
   data source      MPC:mpu  
   producer      MPC  

Additional Information
 T_jup = 3.557 

Ephemeris | Orbit Diagram | Orbital Elements | Physical Parameters | Discovery Circumstances ]

Physical Parameter Table
Parameter Symbol Value Units Sigma Reference Notes
absolute magnitude H 16.0 mag n/a MPO129399  

172525 Adamblock           Discovered 2003 Oct. 4 by D. Healy at Junk Bond Observatory.
Adam Block (b. 1973) has helped popularize astronomy through public speaking and his masterful astronomical photographs. A former coordinator of the public observing programs at Kitt Peak National Observatory, he has been named director of the astronomical activities at the new Mount Lemmon Science Center, near Tucson.
NOTE: some special characters may not display properly (any characters within {} are an attempt to place the proper accent above a character)
Reference: 20080618/MPCPages.arcLast Updated: 2008-06-20
Ephemeris | Orbit Diagram | Orbital Elements | Physical Parameters | Discovery Circumstances ]
ABOUT SSD CREDITS/AWARDS PRIVACY/COPYRIGHT GLOSSARY LINKS
FirstGov 2010-Feb-10 05:41 UT
(server date/time)  
NASA Home Page
Site Manager:   Donald K. Yeomans
Webmaster  Alan B. Chamberlin